{"data":{"norad_id":47822,"intl_designator":"2021-018AM","name":"STARLINK-2407","alt_names":[],"object_type":"PAYLOAD","status":"ACTIVE","operator":null,"country":"US","launch_date":"2021-03-11","launch_site_code":"AFETR","launch_vehicle":null,"mission":null,"orbit_class":"UNKNOWN","rcs_meters":null,"size_class":null,"mass_kg":null,"dimensions":null,"purposes":["comms"],"wikipedia_slug":null,"has_3d_model":false,"image_url":null,"decayed_at":null,"tle_current":{"epoch":"2026-05-25T01:09:18.660096Z","epoch_age_seconds":70654,"freshness":"FRESH","line1":"1 47822U 21018AM  26145.04813264  .00002068  00000+0  78354-4 0  9997","line2":"2 47822  53.1598 260.1416 0001108  96.0374 264.0754 15.31708030288256","mean_motion":15.3170803,"eccentricity":0.0001108,"inclination_deg":53.1598,"raan_deg":260.1416,"arg_perigee_deg":96.0374,"mean_anomaly_deg":264.0754,"bstar":7.8354e-5,"rev_number":28825,"period_min":94.012695095683,"perigee_km":469.95720539921,"apogee_km":471.47491123693,"semimajor_km":6848.8530583181,"source":"CELESTRAK","updated_at":"2026-05-25T13:38:16.603709Z"}}}